NOS5672 LGKR-LIRF

Flight info

Callsign NOS5672
Flight time 1h 9m
Altitude 40000
Route TIGRA DCT EKTOL DCT TEA DCT SIPRO DCT LAT
Aircraft B789/H-SDE1E2E3FGHIJ2J3J4J5M1RWXY/LB1D1

Departure

Time 2026-05-04 19:10
Airport Corfu Ioannis Kapodistrias International Airport (LGKR)

Arrival

Time 2026-05-04 20:19
Airport Rome–Fiumicino Leonardo da Vinci International Airport (LIRF)
Time Latitude Longitude Altitude Speed Heading
2026-05-04 18:51 39.60830 19.91307 28 ft 0 kts 79°
2026-05-04 18:58 39.60830 19.91306 24 ft 1 kts 79°
2026-05-04 18:58 39.60827 19.91286 29 ft 3 kts 84°
2026-05-04 18:59 39.60826 19.91261 29 ft 3 kts 92°
2026-05-04 18:59 39.60828 19.91236 28 ft 3 kts 103°
2026-05-04 18:59 39.60834 19.91211 27 ft 3 kts 117°
2026-05-04 18:59 39.60844 19.91191 29 ft 3 kts 135°
2026-05-04 19:00 39.60858 19.91177 28 ft 3 kts 159°
2026-05-04 19:00 39.60866 19.91174 27 ft 0 kts 168°
2026-05-04 19:02 39.60859 19.91176 28 ft 2 kts 168°
2026-05-04 19:02 39.60809 19.91189 29 ft 11 kts 168°
2026-05-04 19:02 39.60729 19.91210 28 ft 13 kts 168°
2026-05-04 19:02 39.60642 19.91232 27 ft 10 kts 172°
2026-05-04 19:03 39.60615 19.91225 28 ft 0 kts 208°
2026-05-04 19:06 39.60590 19.91204 25 ft 10 kts 212°
2026-05-04 19:06 39.60493 19.91146 27 ft 20 kts 193°
2026-05-04 19:06 39.60347 19.91172 30 ft 22 kts 169°
2026-05-04 19:06 39.60199 19.91210 27 ft 22 kts 168°
2026-05-04 19:07 39.60033 19.91254 26 ft 28 kts 168°
2026-05-04 19:07 39.59842 19.91304 27 ft 28 kts 169°
2026-05-04 19:07 39.59645 19.91356 25 ft 30 kts 168°
2026-05-04 19:07 39.59441 19.91408 24 ft 30 kts 169°
2026-05-04 19:08 39.59256 19.91455 25 ft 20 kts 168°
2026-05-04 19:08 39.59169 19.91502 28 ft 8 kts 196°
2026-05-04 19:08 39.59158 19.91468 28 ft 2 kts 298°
2026-05-04 19:08 39.59171 19.91467 28 ft 2 kts 13°
2026-05-04 19:09 39.59205 19.91469 27 ft 5 kts 348°
2026-05-04 19:09 39.59281 19.91448 24 ft 32 kts 349°
2026-05-04 19:09 39.59759 19.91326 26 ft 108 kts 349°
2026-05-04 19:09 39.60719 19.91079 120 ft 163 kts 351°
2026-05-04 19:10 39.61790 19.90822 1152 ft 154 kts 350°
2026-05-04 19:10 39.62905 19.90574 1891 ft 174 kts 350°
2026-05-04 19:10 39.64190 19.90216 2548 ft 203 kts 343°
2026-05-04 19:10 39.65325 19.89069 3472 ft 215 kts 301°
2026-05-04 19:11 39.65671 19.87309 4737 ft 217 kts 264°
2026-05-04 19:11 39.65253 19.85319 5936 ft 225 kts 253°
2026-05-04 19:11 39.64775 19.83394 7094 ft 230 kts 253°
2026-05-04 19:11 39.64682 19.81313 8160 ft 232 kts 288°
2026-05-04 19:12 39.65343 19.79295 8905 ft 257 kts 300°
2026-05-04 19:12 39.67283 19.75044 10763 ft 287 kts 307°
2026-05-04 19:12 39.68493 19.72827 11351 ft 313 kts 308°
2026-05-04 19:13 39.69791 19.70406 11898 ft 340 kts 307°
2026-05-04 19:13 39.71110 19.67805 13010 ft 346 kts 306°
2026-05-04 19:13 39.72419 19.65218 14190 ft 350 kts 307°
2026-05-04 19:13 39.73786 19.62577 15250 ft 354 kts 307°
2026-05-04 19:14 39.75170 19.59906 16268 ft 359 kts 307°
2026-05-04 19:14 39.76566 19.57187 17283 ft 364 kts 307°
2026-05-04 19:14 39.77977 19.54429 18286 ft 369 kts 307°
2026-05-04 19:14 39.79411 19.51632 19132 ft 374 kts 307°
2026-05-04 19:15 39.80862 19.48804 19995 ft 378 kts 306°
2026-05-04 19:15 39.82328 19.45942 20837 ft 382 kts 306°
2026-05-04 19:15 39.83803 19.43057 21659 ft 385 kts 306°
2026-05-04 19:15 39.85296 19.40135 22455 ft 389 kts 306°
2026-05-04 19:16 39.86799 19.37192 23232 ft 393 kts 306°
2026-05-04 19:16 39.88318 19.34215 23925 ft 397 kts 306°
2026-05-04 19:16 39.89331 19.32228 24341 ft 399 kts 306°
2026-05-04 19:16 39.90869 19.29206 24975 ft 402 kts 306°
2026-05-04 19:17 39.92422 19.26156 25570 ft 404 kts 306°
2026-05-04 19:17 39.93980 19.23090 26167 ft 407 kts 306°
2026-05-04 19:17 39.95549 19.20001 26733 ft 410 kts 306°
2026-05-04 19:17 39.97128 19.16889 27296 ft 413 kts 306°
2026-05-04 19:18 39.98715 19.13757 27838 ft 416 kts 306°
2026-05-04 19:18 40.00317 19.10594 28369 ft 419 kts 306°
2026-05-04 19:18 40.01926 19.07412 28876 ft 422 kts 306°
2026-05-04 19:18 40.03548 19.04203 29391 ft 425 kts 306°
2026-05-04 19:19 40.05158 19.00960 29875 ft 428 kts 302°
2026-05-04 19:19 40.06432 18.97415 30286 ft 435 kts 294°
2026-05-04 19:19 40.07524 18.93721 30664 ft 438 kts 294°
2026-05-04 19:19 40.08619 18.90006 31059 ft 440 kts 294°
2026-05-04 19:20 40.09717 18.86264 31432 ft 443 kts 294°
2026-05-04 19:20 40.10823 18.82497 31794 ft 445 kts 294°
2026-05-04 19:20 40.11933 18.78719 32150 ft 447 kts 294°
2026-05-04 19:20 40.13047 18.74918 32488 ft 450 kts 294°
2026-05-04 19:21 40.14167 18.71089 32829 ft 452 kts 294°
2026-05-04 19:21 40.15288 18.67250 33168 ft 453 kts 294°
2026-05-04 19:21 40.16390 18.63467 33695 ft 451 kts 293°
2026-05-04 19:21 40.17499 18.59659 34213 ft 448 kts 293°
2026-05-04 19:22 40.18603 18.55864 34617 ft 447 kts 293°
2026-05-04 19:22 40.19706 18.52069 35004 ft 446 kts 293°
2026-05-04 19:22 40.20806 18.48277 35404 ft 445 kts 293°
2026-05-04 19:22 40.21860 18.44637 35784 ft 444 kts 293°
2026-05-04 19:23 40.22959 18.40835 36181 ft 443 kts 294°
2026-05-04 19:23 40.24031 18.37123 36566 ft 441 kts 294°
2026-05-04 19:23 40.25112 18.33375 36975 ft 440 kts 294°
2026-05-04 19:23 40.26147 18.29780 37366 ft 439 kts 294°
2026-05-04 19:24 40.27219 18.26051 37728 ft 438 kts 294°
2026-05-04 19:24 40.28290 18.22321 38111 ft 437 kts 294°
2026-05-04 19:24 40.29355 18.18607 38485 ft 436 kts 294°
2026-05-04 19:24 40.30418 18.14895 38844 ft 435 kts 294°
2026-05-04 19:25 40.31393 18.11485 39089 ft 434 kts 293°
2026-05-04 19:25 40.32461 18.07745 39340 ft 435 kts 293°
2026-05-04 19:25 40.33519 18.04034 39593 ft 435 kts 293°
2026-05-04 19:25 40.34576 18.00321 39816 ft 435 kts 293°
2026-05-04 19:26 40.35635 17.96596 39974 ft 438 kts 293°
2026-05-04 19:26 40.36700 17.92846 40135 ft 440 kts 293°
2026-05-04 19:26 40.37772 17.89065 40126 ft 444 kts 293°
2026-05-04 19:27 40.39907 17.81511 40129 ft 440 kts 293°
2026-05-04 19:27 40.42032 17.73979 40124 ft 439 kts 292°
2026-05-04 19:28 40.44147 17.66455 40116 ft 439 kts 292°
2026-05-04 19:28 40.46255 17.58938 40122 ft 439 kts 292°
2026-05-04 19:29 40.48355 17.51423 40124 ft 438 kts 292°
2026-05-04 19:29 40.50450 17.43908 40116 ft 438 kts 292°
2026-05-04 19:30 40.52537 17.36399 40119 ft 438 kts 292°
2026-05-04 19:30 40.54619 17.28884 40122 ft 437 kts 292°
2026-05-04 19:31 40.56693 17.21376 40122 ft 436 kts 292°
2026-05-04 19:31 40.58755 17.13890 40121 ft 435 kts 292°
2026-05-04 19:32 40.60800 17.06444 40121 ft 436 kts 292°
2026-05-04 19:32 40.62854 16.98942 40124 ft 435 kts 292°
2026-05-04 19:33 40.64903 16.91438 40126 ft 436 kts 292°
2026-05-04 19:33 40.66946 16.83928 40122 ft 436 kts 292°
2026-05-04 19:34 40.68986 16.76414 40123 ft 435 kts 292°
2026-05-04 19:34 40.71016 16.68910 40124 ft 435 kts 292°
2026-05-04 19:35 40.73042 16.61400 40129 ft 434 kts 291°
2026-05-04 19:35 40.75057 16.53905 40127 ft 434 kts 291°
2026-05-04 19:36 40.77058 16.46442 40129 ft 433 kts 291°
2026-05-04 19:36 40.79058 16.38961 40123 ft 433 kts 291°
2026-05-04 19:37 40.81055 16.31467 40127 ft 433 kts 291°
2026-05-04 19:37 40.83055 16.23943 40123 ft 433 kts 291°
2026-05-04 19:38 40.85038 16.16458 40124 ft 433 kts 291°
2026-05-04 19:38 40.87029 16.08919 40125 ft 433 kts 291°
2026-05-04 19:39 40.88992 16.01460 40125 ft 434 kts 291°
2026-05-04 19:39 40.90976 15.93913 40124 ft 433 kts 292°
2026-05-04 19:40 40.92953 15.86404 40130 ft 434 kts 289°
2026-05-04 19:40 40.94901 15.78831 40127 ft 434 kts 291°
2026-05-04 19:41 40.96886 15.71280 40128 ft 435 kts 290°
2026-05-04 19:41 40.98831 15.63721 40132 ft 434 kts 290°
2026-05-04 19:42 41.00799 15.56141 40129 ft 435 kts 290°
2026-05-04 19:42 41.02746 15.48564 40125 ft 435 kts 290°
2026-05-04 19:43 41.04694 15.40991 40125 ft 434 kts 290°
2026-05-04 19:43 41.06630 15.33422 40132 ft 434 kts 290°
2026-05-04 19:44 41.08569 15.25827 40129 ft 434 kts 290°
2026-05-04 19:44 41.10499 15.18234 40132 ft 435 kts 289°
2026-05-04 19:45 41.11857 15.10453 40144 ft 438 kts 284°
2026-05-04 19:45 41.13152 15.02553 40151 ft 439 kts 283°
2026-05-04 19:46 41.14422 14.94631 40153 ft 439 kts 284°
2026-05-04 19:46 41.15696 14.86727 40151 ft 439 kts 283°
2026-05-04 19:47 41.16963 14.78781 40150 ft 440 kts 283°
2026-05-04 19:47 41.18227 14.70840 40153 ft 440 kts 283°
2026-05-04 19:48 41.19483 14.62906 40155 ft 440 kts 283°
2026-05-04 19:48 41.20736 14.54952 40153 ft 440 kts 283°
2026-05-04 19:49 41.21983 14.47001 40151 ft 440 kts 283°
2026-05-04 19:49 41.23225 14.39047 40146 ft 440 kts 283°
2026-05-04 19:50 41.24460 14.31093 40142 ft 440 kts 283°
2026-05-04 19:50 41.25688 14.23145 39977 ft 434 kts 283°
2026-05-04 19:50 41.26294 14.19209 39238 ft 436 kts 283°
2026-05-04 19:51 41.26902 14.15257 38505 ft 436 kts 283°
2026-05-04 19:51 41.27507 14.11317 37836 ft 433 kts 283°
2026-05-04 19:51 41.28104 14.07409 37217 ft 429 kts 283°
2026-05-04 19:51 41.28693 14.03542 36592 ft 425 kts 283°
2026-05-04 19:52 41.29364 13.99738 35964 ft 420 kts 289°
2026-05-04 19:52 41.30434 13.96135 35321 ft 417 kts 296°
2026-05-04 19:52 41.31881 13.92816 34655 ft 415 kts 303°
2026-05-04 19:52 41.33513 13.89648 33917 ft 415 kts 302°
2026-05-04 19:53 41.35140 13.86475 33197 ft 415 kts 302°
2026-05-04 19:53 41.36781 13.83288 32465 ft 421 kts 303°
2026-05-04 19:53 41.38454 13.80041 31687 ft 428 kts 303°
2026-05-04 19:53 41.40146 13.76748 30880 ft 433 kts 303°
2026-05-04 19:54 41.41843 13.73440 30035 ft 431 kts 303°
2026-05-04 19:54 41.43398 13.70070 29246 ft 424 kts 296°
2026-05-04 19:54 41.44546 13.66479 28460 ft 419 kts 288°
2026-05-04 19:54 41.45270 13.62774 27709 ft 419 kts 281°
2026-05-04 19:55 41.45770 13.58892 26925 ft 422 kts 280°
2026-05-04 19:55 41.46269 13.55035 26160 ft 421 kts 280°
2026-05-04 19:55 41.46753 13.51203 25400 ft 417 kts 279°
2026-05-04 19:55 41.47229 13.47408 24644 ft 415 kts 279°
2026-05-04 19:56 41.47701 13.43663 23911 ft 415 kts 279°
2026-05-04 19:56 41.48181 13.39866 23119 ft 416 kts 279°
2026-05-04 19:56 41.48656 13.36079 22312 ft 411 kts 279°
2026-05-04 19:56 41.49121 13.32353 21585 ft 405 kts 279°
2026-05-04 19:57 41.49579 13.28682 20868 ft 399 kts 279°
2026-05-04 19:57 41.50031 13.25051 20154 ft 393 kts 279°
2026-05-04 19:57 41.50474 13.21482 19465 ft 388 kts 279°
2026-05-04 19:57 41.50911 13.17952 18775 ft 383 kts 279°
2026-05-04 19:58 41.51439 13.14535 18499 ft 366 kts 289°
2026-05-04 19:58 41.52527 13.11585 18452 ft 345 kts 300°
2026-05-04 19:58 41.54011 13.09059 17614 ft 349 kts 313°
2026-05-04 19:58 41.55818 13.06927 17100 ft 345 kts 317°
2026-05-04 19:59 41.57644 13.04870 16669 ft 343 kts 317°
2026-05-04 19:59 41.59462 13.02787 16268 ft 344 kts 317°
2026-05-04 19:59 41.61263 13.00709 15862 ft 343 kts 317°
2026-05-04 19:59 41.63067 12.98635 15538 ft 341 kts 317°
2026-05-04 20:00 41.64863 12.96577 15223 ft 340 kts 317°
2026-05-04 20:00 41.66659 12.94514 14913 ft 340 kts 317°
2026-05-04 20:00 41.68447 12.92456 14606 ft 339 kts 317°
2026-05-04 20:00 41.70235 12.90396 14306 ft 338 kts 317°
2026-05-04 20:01 41.72012 12.88348 14000 ft 337 kts 317°
2026-05-04 20:01 41.73785 12.86305 13660 ft 336 kts 317°
2026-05-04 20:01 41.75555 12.84263 13315 ft 335 kts 317°
2026-05-04 20:01 41.77316 12.82229 12989 ft 332 kts 317°
2026-05-04 20:02 41.79031 12.80248 12648 ft 320 kts 317°
2026-05-04 20:02 41.80689 12.78332 12301 ft 309 kts 317°
2026-05-04 20:02 41.82286 12.76483 11956 ft 299 kts 317°
2026-05-04 20:02 41.83411 12.75179 11699 ft 296 kts 317°
2026-05-04 20:03 41.84983 12.73356 11365 ft 295 kts 317°
2026-05-04 20:03 41.86536 12.71555 11043 ft 294 kts 317°
2026-05-04 20:03 41.88079 12.69766 10773 ft 293 kts 317°
2026-05-04 20:03 41.89624 12.67972 10531 ft 294 kts 317°
2026-05-04 20:04 41.91168 12.66178 10288 ft 294 kts 317°
2026-05-04 20:04 41.92191 12.64989 10142 ft 294 kts 317°
2026-05-04 20:04 41.93734 12.63194 9890 ft 293 kts 317°
2026-05-04 20:04 41.95275 12.61401 9618 ft 293 kts 317°
2026-05-04 20:05 41.97316 12.59024 9266 ft 292 kts 317°
2026-05-04 20:05 41.98350 12.57818 9100 ft 292 kts 317°
2026-05-04 20:05 41.99882 12.56032 8836 ft 291 kts 317°
2026-05-04 20:05 42.01397 12.54265 8571 ft 283 kts 317°
2026-05-04 20:06 42.02855 12.52564 8314 ft 272 kts 316°
2026-05-04 20:06 42.04256 12.50928 8041 ft 263 kts 316°
2026-05-04 20:06 42.05616 12.49336 7769 ft 257 kts 316°
2026-05-04 20:06 42.06954 12.47770 7544 ft 254 kts 316°
2026-05-04 20:07 42.08289 12.46207 7351 ft 254 kts 316°
2026-05-04 20:07 42.09625 12.44643 7146 ft 254 kts 316°
2026-05-04 20:07 42.10955 12.43084 6955 ft 253 kts 316°
2026-05-04 20:07 42.12283 12.41526 6751 ft 253 kts 316°
2026-05-04 20:08 42.13596 12.39986 6548 ft 253 kts 316°
2026-05-04 20:08 42.14921 12.38430 6357 ft 253 kts 316°
2026-05-04 20:08 42.16244 12.36876 6150 ft 252 kts 316°
2026-05-04 20:08 42.17465 12.35220 5918 ft 247 kts 298°
2026-05-04 20:09 42.17984 12.33062 5706 ft 240 kts 270°
2026-05-04 20:09 42.17732 12.30887 5491 ft 234 kts 250°
2026-05-04 20:09 42.17255 12.28797 5319 ft 233 kts 249°
2026-05-04 20:09 42.16755 12.26719 5126 ft 233 kts 249°
2026-05-04 20:10 42.16263 12.24638 5032 ft 229 kts 249°
2026-05-04 20:10 42.15801 12.22644 5023 ft 220 kts 249°
2026-05-04 20:10 42.15343 12.20690 5022 ft 217 kts 248°
2026-05-04 20:10 42.14577 12.18993 4888 ft 214 kts 218°
2026-05-04 20:11 42.13372 12.17897 4751 ft 207 kts 208°
2026-05-04 20:11 42.12135 12.16939 4687 ft 207 kts 207°
2026-05-04 20:11 42.10876 12.15970 4604 ft 208 kts 208°
2026-05-04 20:11 42.09632 12.14991 4506 ft 206 kts 208°
2026-05-04 20:12 42.08395 12.14013 4406 ft 206 kts 208°
2026-05-04 20:12 42.07158 12.13044 4290 ft 206 kts 206°
2026-05-04 20:12 42.05791 12.12599 4122 ft 205 kts 179°
2026-05-04 20:12 42.04417 12.13015 4069 ft 201 kts 163°
2026-05-04 20:13 42.03071 12.13579 4079 ft 204 kts 163°
2026-05-04 20:13 42.01715 12.14149 4081 ft 205 kts 163°
2026-05-04 20:13 42.00346 12.14725 3942 ft 208 kts 163°
2026-05-04 20:13 41.98978 12.15300 3678 ft 205 kts 163°
2026-05-04 20:14 41.97613 12.15875 3397 ft 204 kts 163°
2026-05-04 20:14 41.96269 12.16440 3139 ft 202 kts 163°
2026-05-04 20:14 41.94941 12.17000 2868 ft 197 kts 163°
2026-05-04 20:14 41.93656 12.17543 2602 ft 191 kts 163°
2026-05-04 20:15 41.92424 12.18062 2354 ft 185 kts 164°
2026-05-04 20:15 41.91212 12.18571 2110 ft 181 kts 163°
2026-05-04 20:15 41.90026 12.19069 1859 ft 174 kts 163°
2026-05-04 20:15 41.88924 12.19532 1634 ft 157 kts 163°
2026-05-04 20:16 41.87944 12.19945 1436 ft 140 kts 163°
2026-05-04 20:16 41.87014 12.20339 1150 ft 139 kts 163°
2026-05-04 20:16 41.86086 12.20729 951 ft 141 kts 162°
2026-05-04 20:16 41.85141 12.21123 756 ft 142 kts 162°
2026-05-04 20:17 41.84257 12.21492 572 ft 141 kts 161°
2026-05-04 20:17 41.83322 12.21884 386 ft 142 kts 161°
2026-05-04 20:17 41.82376 12.22287 234 ft 142 kts 162°
2026-05-04 20:17 41.81439 12.22683 53 ft 140 kts 162°
2026-05-04 20:18 41.80624 12.23026 22 ft 88 kts 162°
2026-05-04 20:18 41.80170 12.23215 26 ft 60 kts 163°
2026-05-04 20:18 41.79799 12.23368 25 ft 52 kts 162°
2026-05-04 20:18 41.79458 12.23512 19 ft 50 kts 162°
2026-05-04 20:19 41.79162 12.23650 21 ft 34 kts 144°
2026-05-04 20:19 41.79004 12.23873 21 ft 32 kts 133°
2026-05-04 20:19 41.78927 12.24050 21 ft 17 kts 84°
2026-05-04 20:19 41.78958 12.24194 22 ft 13 kts 45°
2026-05-04 20:20 41.79012 12.24203 21 ft 9 kts 343°
2026-05-04 20:20 41.79097 12.24164 21 ft 17 kts 340°
2026-05-04 20:20 41.79223 12.24101 21 ft 17 kts 340°
2026-05-04 20:20 41.79297 12.24137 22 ft 11 kts 63°
2026-05-04 20:21 41.79329 12.24251 21 ft 16 kts 69°
2026-05-04 20:21 41.79331 12.24362 23 ft 11 kts 118°
2026-05-04 20:21 41.79309 12.24431 21 ft 0 kts 73°
2026-05-04 20:22 41.79312 12.24434 21 ft 1 kts 52°
2026-05-04 20:22 41.79327 12.24446 22 ft 4 kts 18°
2026-05-04 20:22 41.79365 12.24461 21 ft 5 kts 16°
2026-05-04 20:22 41.79384 12.24468 21 ft 0 kts 15°